Regional Weather Roundup
Issued by NWS

Home | Current Version | Previous Version | Graphics & Text | Print | Product List | Glossary On
Versions: 1 2 3 4 5 6 7 8 9 10 11 12 13 14 15 16 17 18 19 20 21 22 23 24 25 26 27 28 29 30 31 32 33 34 35 36 37 38 39 40 41 42 43 44 45 46 47 48 49 50
000
ASUS45 KBOI 261910
RWRID
WEATHER ROUNDUP FOR IDAHO
NATIONAL WEATHER SERVICE BOISE ID
1200 PM MST THU FEB 26 2015

NOTE: "FAIR" INDICATES FEW OR NO CLOUDS BELOW 12000 FEET
WITH NO SIGNIFICANT WEATHER AND/OR OBSTRUCTIONS TO VISIBILITY

IDZ012-014-262000-
SOUTHWEST IDAHO


CITY           SKY/WX    TMP DP  RH WIND       PRES   REMARKS
BOISE          CLOUDY    46  35  65 W12       30.05F
CALDWELL       CLOUDY    48  32  53 NW13      30.09F
MOUNTAIN HOME  PTSUNNY   45  33  61 NW15      30.04F
$$

IDZ016-017-262000-
SOUTHCENTRAL IDAHO


CITY           SKY/WX    TMP DP  RH WIND       PRES   REMARKS
BURLEY         MOSUNNY   41  15  35 CALM      30.01F
JEROME         PTSUNNY   37  23  56 S10       30.04F WCI  30
TWIN FALLS     CLOUDY    34  27  75 S7        30.04F WCI  28
$$

IDZ019>023-262000-
SOUTHEAST IDAHO


CITY           SKY/WX    TMP DP  RH WIND       PRES   REMARKS
IDAHO FALLS    MOSUNNY   37  12  35 NE9       30.00F WCI  30
POCATELLO      MOSUNNY   40  16  37 NE7       30.00F
REXBURG        SUNNY     35  11  36 VRB6      29.99F WCI  30
$$

IDZ006-010-011-018-031-032-262000-
CENTRAL IDAHO MOUNTAINS


CITY           SKY/WX    TMP DP  RH WIND       PRES   REMARKS
MCCALL         FLURRIES  33  28  81 SW6       29.99F WCI  28
HAILEY         PTSUNNY   37  27  65 E12       29.99F WCI  30
STANLEY          N/A     32  20  61 N6        29.97F WCI  26
SALMON         MOSUNNY   36  19  51 CALM      30.03F
CHALLIS        CLOUDY    35  19  52 S6        29.98F WCI  30
$$

IDZ002-004-006-007-026-262000-
NORTHERN IDAHO


CITY           SKY/WX    TMP DP  RH WIND       PRES   REMARKS
LEWISTON       CLOUDY    41  39  93 CALM      30.13F
LOWELL           N/A     48  32  53 CALM      30.13F
COEUR D`ALENE  MOSUNNY   39  28  65 NE10      30.10F WCI  32
MULLAN PASS    PTSUNNY   25  19  78 VRB5      30.00F WCI  19
$$


USA.gov is the U.S. government's official web portal to all federal, state and local government web resources and services.